Total_Precipitation_Accumulation
0.03 0.05 0.05 0.07 0.08 0.09 0.12 0.14 0.13 0.13 0.12 0.17 0.21 0.30 0.44 0.59 0.54 0.60 0.70 0.75 0.69 0.70 0.80 1.13 1.65 2.28 2.75 2.92 2.90 2.94 2.92 2.96 3.01 2.98 3.04 3.27 3.46 3.48 3.43 3.53 3.58 3.43 3.34 3.37
0.04 0.05 0.05 0.07 0.09 0.09 0.15 0.16 0.17 0.20 0.17 0.19 0.30 0.40 0.52 0.61 0.59 0.64 0.76 0.76 0.70 0.70 0.81 1.20 1.58 1.98 2.36 2.66 2.80 2.90 2.84 3.05 3.29 3.59 3.98 4.30 4.52 4.47 4.31 4.22 4.13 3.98 3.86 3.78
0.04 0.03 0.03 0.04 0.07 0.09 0.14 0.11 0.16 0.24 0.26 0.23 0.34 0.60 0.67 0.68 0.76 0.80 0.79 0.85 0.87 0.77 0.85 1.14 1.35 1.63 1.96 2.31 2.58 2.74 2.94 3.35 3.79 4.26 4.94 5.40 5.31 4.98 4.83 4.56 4.44 4.19 3.90 3.83
0.01 0.02 0.02 0.04 0.05 0.07 0.10 0.07 0.11 0.16 0.21 0.26 0.28 0.61 0.85 0.87 1.01 1.07 0.96 0.89 0.89 0.86 0.83 0.98 1.20 1.42 1.67 2.09 2.47 2.77 3.13 3.65 4.25 4.69 5.14 5.45 5.48 5.28 5.05 4.60 4.22 3.82 3.47 3.29
0.02 0.03 0.07 0.11 0.06 0.07 0.06 0.06 0.09 0.11 0.15 0.21 0.26 0.44 0.84 1.03 1.09 1.15 1.03 0.96 0.82 0.78 0.78 0.85 0.98 1.18 1.48 1.90 2.33 2.69 3.02 3.60 4.16 4.66 5.00 5.20 5.31 5.21 4.88 4.26 3.67 3.30 3.00 2.78
0.02 0.04 0.09 0.09 0.06 0.06 0.06 0.06 0.10 0.14 0.17 0.26 0.24 0.40 0.92 1.22 1.21 1.14 1.13 1.09 0.92 0.80 0.79 0.83 0.93 1.07 1.36 1.68 2.04 2.36 2.68 3.34 3.98 4.51 4.88 5.12 5.16 4.90 4.35 3.76 3.25 2.94 2.68 2.45
0.06 0.07 0.08 0.07 0.07 0.07 0.07 0.09 0.20 0.29 0.32 0.36 0.26 0.43 0.89 1.00 1.02 1.13 1.09 1.01 0.91 0.81 0.77 0.79 0.93 1.02 1.25 1.54 1.81 2.12 2.48 2.92 3.41 3.81 4.04 4.19 4.23 4.04 3.73 3.37 2.95 2.60 2.38 2.17
0.14 0.15 0.09 0.05 0.04 0.04 0.05 0.10 0.26 0.37 0.38 0.40 0.46 0.79 1.17 1.06 1.02 1.05 1.05 0.90 0.83 0.82 0.83 0.85 0.96 1.02 1.09 1.29 1.55 1.89 2.20 2.49 2.72 2.89 3.08 3.07 3.03 2.97 2.82 2.49 2.14 1.88 1.65 1.52
0.17 0.18 0.09 0.04 0.02 0.03 0.04 0.08 0.10 0.16 0.18 0.39 0.71 0.97 1.32 1.27 1.26 1.11 1.02 0.94 0.86 0.84 0.86 0.89 0.96 0.99 1.06 1.17 1.36 1.56 1.71 1.89 1.95 1.89 1.91 1.97 1.99 1.95 1.83 1.67 1.43 1.18 0.99 0.89
0.14 0.14 0.10 0.06 0.05 0.05 0.05 0.06 0.09 0.21 0.32 0.49 0.74 1.13 1.59 1.64 1.50 1.22 0.99 0.87 0.75 0.76 0.87 0.93 0.97 1.03 1.10 1.12 1.29 1.38 1.36 1.34 1.36 1.37 1.36 1.34 1.35 1.35 1.32 1.24 1.13 0.99 0.84 0.72
0.12 0.14 0.13 0.09 0.11 0.12 0.09 0.09 0.11 0.21 0.29 0.51 0.84 1.39 1.52 1.67 1.56 1.40 1.27 0.97 0.84 0.82 0.87 0.96 0.95 0.93 0.93 0.92 0.96 1.00 1.02 1.05 1.05 1.03 1.04 1.05 0.99 0.94 0.91 0.94 0.92 0.83 0.73 0.65
0.15 0.14 0.22 0.18 0.15 0.13 0.10 0.12 0.15 0.30 0.37 0.42 0.74 1.49 1.42 1.73 1.71 1.51 1.37 1.07 0.98 0.94 0.92 0.89 0.85 0.77 0.76 0.79 0.82 0.81 0.83 0.84 0.87 0.87 0.84 0.85 0.77 0.71 0.70 0.69 0.68 0.64 0.61 0.61
0.12 0.18 0.35 0.46 0.41 0.26 0.18 0.14 0.16 0.20 0.30 0.41 0.74 1.53 1.57 1.62 1.66 1.39 1.20 1.14 1.15 1.15 1.10 0.98 0.87 0.77 0.73 0.73 0.75 0.70 0.68 0.66 0.63 0.64 0.65 0.70 0.68 0.63 0.63 0.58 0.57 0.60 0.58 0.55
0.10 0.26 0.51 0.85 0.77 0.42 0.30 0.21 0.18 0.22 0.39 0.50 0.72 1.19 1.41 1.46 1.39 1.30 1.22 1.20 1.26 1.25 1.11 0.97 0.91 0.82 0.76 0.70 0.66 0.62 0.59 0.56 0.53 0.50 0.48 0.53 0.56 0.54 0.54 0.55 0.52 0.50 0.48 0.47
0.12 0.28 0.33 0.32 0.27 0.28 0.30 0.26 0.25 0.29 0.36 0.58 0.85 1.10 1.28 1.47 1.54 1.50 1.35 1.25 1.26 1.23 1.15 1.08 0.98 0.88 0.79 0.74 0.67 0.61 0.57 0.51 0.47 0.47 0.48 0.49 0.51 0.50 0.51 0.52 0.50 0.43 0.39 0.36
0.13 0.22 0.29 0.33 0.28 0.28 0.34 0.35 0.33 0.35 0.45 0.63 0.88 1.21 1.47 1.65 1.65 1.54 1.42 1.33 1.34 1.26 1.18 1.10 1.00 0.91 0.83 0.81 0.77 0.72 0.65 0.57 0.53 0.55 0.55 0.52 0.51 0.52 0.54 0.51 0.49 0.42 0.38 0.34
0.18 0.28 0.46 0.47 0.34 0.45 0.73 0.62 0.56 0.57 0.58 0.75 0.99 1.21 1.40 1.55 1.61 1.61 1.51 1.48 1.49 1.39 1.33 1.26 1.15 1.03 0.95 0.89 0.81 0.78 0.72 0.65 0.60 0.59 0.55 0.52 0.48 0.46 0.45 0.42 0.43 0.42 0.40 0.36
0.23 0.35 0.51 0.53 0.63 1.02 0.97 0.57 0.56 0.66 0.59 0.60 0.76 0.89 1.09 1.26 1.32 1.40 1.46 1.54 1.60 1.53 1.45 1.34 1.25 1.16 1.08 0.98 0.90 0.82 0.71 0.64 0.58 0.56 0.51 0.44 0.41 0.43 0.40 0.40 0.41 0.39 0.40 0.41
0.18 0.37 0.62 0.68 0.88 1.04 0.92 0.56 0.48 0.71 0.87 0.65 0.65 0.72 0.84 0.87 1.03 1.32 1.33 1.32 1.45 1.47 1.41 1.33 1.24 1.18 1.09 0.98 0.88 0.76 0.66 0.56 0.50 0.49 0.44 0.38 0.34 0.33 0.34 0.35 0.38 0.39 0.42 0.46
0.16 0.31 0.62 0.80 1.06 1.23 0.95 0.43 0.36 0.67 1.17 0.82 0.78 0.77 0.91 0.96 1.11 1.22 1.10 1.10 1.18 1.23 1.23 1.20 1.16 1.08 1.00 0.88 0.74 0.67 0.64 0.56 0.46 0.40 0.35 0.32 0.31 0.32 0.34 0.37 0.39 0.35 0.38 0.45
0.44 0.52 0.69 0.88 1.11 1.13 0.56 0.29 0.42 1.02 1.20 0.83 0.85 0.91 0.93 0.98 1.02 0.91 0.87 1.01 1.11 1.13 1.13 1.07 1.01 0.95 0.85 0.73 0.63 0.59 0.55 0.49 0.34 0.25 0.24 0.27 0.29 0.30 0.29 0.36 0.39 0.38 0.37 0.41
0.71 0.77 0.86 0.94 1.15 1.21 0.49 0.35 0.66 0.85 0.62 0.67 0.75 0.76 0.79 0.73 0.69 0.75 0.82 0.98 1.07 1.09 1.07 0.98 0.90 0.78 0.64 0.53 0.53 0.53 0.44 0.32 0.22 0.21 0.23 0.26 0.26 0.21 0.21 0.33 0.36 0.36 0.41 0.39
0.78 0.87 0.92 1.02 1.14 0.84 0.45 0.37 0.38 0.43 0.51 0.54 0.61 0.61 0.64 0.66 0.65 0.69 0.80 0.92 1.01 0.97 0.89 0.78 0.68 0.59 0.49 0.44 0.46 0.44 0.34 0.23 0.19 0.24 0.28 0.26 0.23 0.22 0.22 0.27 0.29 0.30 0.37 0.37
0.93 0.82 0.81 0.89 0.90 0.66 0.47 0.35 0.32 0.32 0.37 0.40 0.47 0.57 0.64 0.67 0.69 0.71 0.74 0.78 0.82 0.80 0.70 0.60 0.52 0.50 0.46 0.40 0.36 0.32 0.24 0.22 0.25 0.31 0.30 0.27 0.28 0.28 0.23 0.22 0.20 0.21 0.25 0.26
0.76 0.85 0.99 1.04 0.97 0.79 0.62 0.43 0.38 0.37 0.40 0.45 0.53 0.57 0.57 0.57 0.63 0.65 0.65 0.63 0.61 0.58 0.54 0.47 0.45 0.43 0.38 0.32 0.27 0.23 0.21 0.22 0.29 0.30 0.24 0.22 0.23 0.23 0.23 0.18 0.13 0.11 0.11 0.10
0.46 0.68 1.01 1.13 0.92 0.84 0.79 0.65 0.56 0.58 0.64 0.59 0.53 0.52 0.52 0.48 0.47 0.44 0.42 0.40 0.39 0.37 0.37 0.35 0.33 0.30 0.27 0.23 0.20 0.18 0.17 0.17 0.24 0.26 0.22 0.18 0.16 0.15 0.14 0.15 0.13 0.07 0.06 0.06